UAL1310 KCOS-KDEN

Flight info

Callsign UAL1310
Flight time 0h 35m
Altitude 13000
Route ADANE V389 LUFSE/N0360F150 JEFEL/N0357F140 FQF
Aircraft B738/M-SDE2E3FGHIRWXY/LB1

Departure

Time 2026-05-06 02:36
Airport City of Colorado Springs Municipal Airport (KCOS)

Arrival

Time 2026-05-06 03:12
Airport Denver International Airport (KDEN)
Time Latitude Longitude Altitude Speed Heading
2026-05-06 02:12 38.79974 -104.70019 6120 ft 0 kts 259°
2026-05-06 02:22 38.79974 -104.70009 6121 ft 2 kts 284°
2026-05-06 02:22 38.79970 -104.69991 6121 ft 1 kts 272°
2026-05-06 02:22 38.79974 -104.69973 6122 ft 2 kts 254°
2026-05-06 02:23 38.79976 -104.69954 6123 ft 2 kts 260°
2026-05-06 02:23 38.79974 -104.69938 6124 ft 2 kts 314°
2026-05-06 02:23 38.79962 -104.69930 6125 ft 0 kts 355°
2026-05-06 02:23 38.79956 -104.69930 6125 ft 1 kts
2026-05-06 02:24 38.79954 -104.69930 6125 ft 0 kts
2026-05-06 02:26 38.79976 -104.69929 6125 ft 16 kts
2026-05-06 02:26 38.80064 -104.69927 6125 ft 0 kts 352°
2026-05-06 02:26 38.80073 -104.69953 6123 ft 9 kts 263°
2026-05-06 02:27 38.80076 -104.70047 6119 ft 9 kts 294°
2026-05-06 02:27 38.80173 -104.70086 6117 ft 19 kts
2026-05-06 02:27 38.80296 -104.70085 6117 ft 16 kts 360°
2026-05-06 02:27 38.80361 -104.70023 6120 ft 10 kts 82°
2026-05-06 02:28 38.80361 -104.69926 6123 ft 9 kts 90°
2026-05-06 02:28 38.80363 -104.69817 6128 ft 18 kts 89°
2026-05-06 02:28 38.80365 -104.69611 6136 ft 28 kts 90°
2026-05-06 02:28 38.80363 -104.69366 6149 ft 23 kts 89°
2026-05-06 02:29 38.80363 -104.69168 6157 ft 24 kts 90°
2026-05-06 02:29 38.80362 -104.68902 6163 ft 25 kts 89°
2026-05-06 02:29 38.80441 -104.68787 6170 ft 14 kts 359°
2026-05-06 02:29 38.80551 -104.68787 6174 ft 20 kts
2026-05-06 02:30 38.80722 -104.68785 6177 ft 28 kts 359°
2026-05-06 02:30 38.80929 -104.68783 6178 ft 34 kts 359°
2026-05-06 02:30 38.81156 -104.68784 6175 ft 28 kts
2026-05-06 02:30 38.81356 -104.68784 6168 ft 28 kts 359°
2026-05-06 02:31 38.81520 -104.68784 6165 ft 11 kts 359°
2026-05-06 02:31 38.81592 -104.68759 6164 ft 9 kts 53°
2026-05-06 02:31 38.81601 -104.68718 6165 ft 0 kts 90°
2026-05-06 02:31 38.81601 -104.68713 6165 ft 0 kts 93°
2026-05-06 02:34 38.81599 -104.68691 6165 ft 8 kts 93°
2026-05-06 02:34 38.81595 -104.68608 6167 ft 9 kts 110°
2026-05-06 02:35 38.81553 -104.68575 6169 ft 4 kts 174°
2026-05-06 02:35 38.81535 -104.68574 6170 ft 1 kts 179°
2026-05-06 02:35 38.81378 -104.68570 6175 ft 54 kts 178°
2026-05-06 02:35 38.80786 -104.68571 6183 ft 114 kts 180°
2026-05-06 02:36 38.79782 -104.68576 6130 ft 169 kts 179°
2026-05-06 02:36 38.78512 -104.68578 6387 ft 188 kts 180°
2026-05-06 02:36 38.77219 -104.68587 7071 ft 189 kts 177°
2026-05-06 02:36 38.75864 -104.68514 7509 ft 205 kts 175°
2026-05-06 02:37 38.74376 -104.68387 7887 ft 224 kts 172°
2026-05-06 02:37 38.72780 -104.67927 8209 ft 248 kts 155°
2026-05-06 02:37 38.71309 -104.66561 8491 ft 270 kts 130°
2026-05-06 02:37 38.70305 -104.64506 9154 ft 281 kts 113°
2026-05-06 02:38 38.69803 -104.62073 9935 ft 286 kts 97°
2026-05-06 02:38 38.69750 -104.59490 10583 ft 297 kts 89°
2026-05-06 02:38 38.69977 -104.56812 11088 ft 313 kts 78°
2026-05-06 02:38 38.70565 -104.54012 10989 ft 349 kts 76°
2026-05-06 02:39 38.71160 -104.50962 11640 ft 353 kts 75°
2026-05-06 02:39 38.72068 -104.47992 12256 ft 364 kts 62°
2026-05-06 02:39 38.73484 -104.45276 12506 ft 371 kts 50°
2026-05-06 02:39 38.75029 -104.42646 12793 ft 374 kts 51°
2026-05-06 02:40 38.76891 -104.40264 12969 ft 375 kts 33°
2026-05-06 02:40 38.79181 -104.38730 12976 ft 369 kts 15°
2026-05-06 02:40 38.81696 -104.38229 12982 ft 364 kts 356°
2026-05-06 02:40 38.84212 -104.38533 12984 ft 361 kts 349°
2026-05-06 02:41 38.86702 -104.39001 12980 ft 361 kts 348°
2026-05-06 02:41 38.89163 -104.39471 12975 ft 360 kts 348°
2026-05-06 02:41 38.91686 -104.39881 12976 ft 363 kts 352°
2026-05-06 02:41 38.94220 -104.39983 12980 ft 365 kts 357°
2026-05-06 02:42 38.96744 -104.39887 12983 ft 365 kts 359°
2026-05-06 02:42 38.99314 -104.39709 12986 ft 367 kts
2026-05-06 02:42 39.01864 -104.39519 12986 ft 366 kts
2026-05-06 02:42 39.04420 -104.39343 12989 ft 367 kts 360°
2026-05-06 02:43 39.06962 -104.39191 12989 ft 366 kts 359°
2026-05-06 02:43 39.09522 -104.39049 12980 ft 366 kts 359°
2026-05-06 02:43 39.12067 -104.38919 12972 ft 366 kts 359°
2026-05-06 02:43 39.14616 -104.38792 12959 ft 365 kts 359°
2026-05-06 02:44 39.17153 -104.38663 12954 ft 367 kts 360°
2026-05-06 02:44 39.19689 -104.38469 12949 ft 356 kts
2026-05-06 02:44 39.22049 -104.37806 12951 ft 341 kts 18°
2026-05-06 02:44 39.24219 -104.36710 12952 ft 331 kts 13°
2026-05-06 02:45 39.26472 -104.36345 12955 ft 325 kts 352°
2026-05-06 02:45 39.28646 -104.37038 12957 ft 322 kts 334°
2026-05-06 02:45 39.30634 -104.38320 12943 ft 318 kts 327°
2026-05-06 02:45 39.32570 -104.39748 12965 ft 319 kts 327°
2026-05-06 02:46 39.34490 -104.41177 12964 ft 318 kts 327°
2026-05-06 02:46 39.36403 -104.42596 12959 ft 317 kts 327°
2026-05-06 02:46 39.38317 -104.44022 12967 ft 317 kts 327°
2026-05-06 02:46 39.40236 -104.45454 12966 ft 318 kts 327°
2026-05-06 02:47 39.42148 -104.46889 12960 ft 317 kts 326°
2026-05-06 02:47 39.44059 -104.48323 12960 ft 317 kts 327°
2026-05-06 02:47 39.45963 -104.49754 12975 ft 316 kts 327°
2026-05-06 02:47 39.47875 -104.51189 12928 ft 318 kts 327°
2026-05-06 02:48 39.49804 -104.52651 12369 ft 322 kts 327°
2026-05-06 02:48 39.51707 -104.54109 11754 ft 315 kts 327°
2026-05-06 02:48 39.53546 -104.55537 11141 ft 310 kts 327°
2026-05-06 02:48 39.55378 -104.56986 10506 ft 305 kts 327°
2026-05-06 02:49 39.57163 -104.58433 9874 ft 302 kts 327°
2026-05-06 02:49 39.58904 -104.59879 9250 ft 299 kts 327°
2026-05-06 02:49 39.60621 -104.61322 8738 ft 291 kts 327°
2026-05-06 02:49 39.62320 -104.62747 8197 ft 286 kts 328°
2026-05-06 02:50 39.63966 -104.64105 7918 ft 272 kts 327°
2026-05-06 02:50 39.65513 -104.65391 7935 ft 259 kts 329°
2026-05-06 02:50 39.67142 -104.66406 7926 ft 264 kts 345°
2026-05-06 02:50 39.68911 -104.66563 7921 ft 245 kts 11°
2026-05-06 02:51 39.70504 -104.66133 7959 ft 224 kts
2026-05-06 02:51 39.72053 -104.66065 7638 ft 224 kts 355°
2026-05-06 02:51 39.73615 -104.66241 7285 ft 224 kts 358°
2026-05-06 02:51 39.75167 -104.66147 6978 ft 216 kts
2026-05-06 02:52 39.76603 -104.66020 6652 ft 198 kts 357°
2026-05-06 02:52 39.77865 -104.66186 6506 ft 172 kts 357°
2026-05-06 02:52 39.79010 -104.66082 6223 ft 158 kts
2026-05-06 02:52 39.80100 -104.66072 5994 ft 155 kts 354°
2026-05-06 02:53 39.81180 -104.66192 5878 ft 159 kts
2026-05-06 02:53 39.82281 -104.66084 5639 ft 152 kts
2026-05-06 02:53 39.83353 -104.66061 5591 ft 155 kts 359°
2026-05-06 02:53 39.84415 -104.66045 5937 ft 152 kts
2026-05-06 02:54 39.85507 -104.66004 6078 ft 160 kts
2026-05-06 02:54 39.86713 -104.65872 5538 ft 187 kts
2026-05-06 02:54 39.87880 -104.65838 6235 ft 156 kts 358°
2026-05-06 02:54 39.89035 -104.65825 6428 ft 177 kts 358°
2026-05-06 02:55 39.90274 -104.65825 7062 ft 175 kts
2026-05-06 02:55 39.91566 -104.65768 7555 ft 190 kts
2026-05-06 02:55 39.92868 -104.65725 8291 ft 186 kts
2026-05-06 02:55 39.94108 -104.65544 8939 ft 185 kts
2026-05-06 02:56 39.95502 -104.65432 8985 ft 221 kts
2026-05-06 02:56 39.97163 -104.65492 8968 ft 249 kts 358°
2026-05-06 02:56 39.98962 -104.65582 8956 ft 263 kts 359°
2026-05-06 02:56 40.00791 -104.65651 8961 ft 270 kts 359°
2026-05-06 02:57 40.02703 -104.65618 8942 ft 276 kts
2026-05-06 02:57 40.04493 -104.64806 8946 ft 273 kts 34°
2026-05-06 02:57 40.05819 -104.63057 8953 ft 270 kts 61°
2026-05-06 02:57 40.06417 -104.60764 8958 ft 269 kts 82°
2026-05-06 02:58 40.06612 -104.58350 8957 ft 268 kts 86°
2026-05-06 02:58 40.06754 -104.55898 8962 ft 269 kts 86°
2026-05-06 02:58 40.06890 -104.53474 8949 ft 268 kts 86°
2026-05-06 02:58 40.07026 -104.51061 8953 ft 267 kts 85°
2026-05-06 02:59 40.07167 -104.48644 8951 ft 266 kts 85°
2026-05-06 02:59 40.07303 -104.46251 8955 ft 266 kts 86°
2026-05-06 02:59 40.07218 -104.43840 8946 ft 266 kts 106°
2026-05-06 02:59 40.06279 -104.41789 8956 ft 267 kts 138°
2026-05-06 03:00 40.04614 -104.40737 8956 ft 270 kts 170°
2026-05-06 03:00 40.02739 -104.40758 8956 ft 272 kts 185°
2026-05-06 03:00 40.00871 -104.41104 8955 ft 270 kts 187°
2026-05-06 03:00 39.99019 -104.41469 8949 ft 270 kts 187°
2026-05-06 03:01 39.97167 -104.41817 8955 ft 270 kts 187°
2026-05-06 03:01 39.95300 -104.42164 8949 ft 269 kts 187°
2026-05-06 03:01 39.93447 -104.42512 8947 ft 269 kts 187°
2026-05-06 03:01 39.91579 -104.42863 8947 ft 270 kts 187°
2026-05-06 03:02 39.89711 -104.43218 8944 ft 269 kts 187°
2026-05-06 03:02 39.87869 -104.43561 8941 ft 269 kts 187°
2026-05-06 03:02 39.85999 -104.43903 8943 ft 270 kts 187°
2026-05-06 03:02 39.84142 -104.44247 8946 ft 268 kts 187°
2026-05-06 03:03 39.82287 -104.44595 8944 ft 268 kts 187°
2026-05-06 03:03 39.80452 -104.44926 8947 ft 269 kts 188°
2026-05-06 03:03 39.78587 -104.45271 8948 ft 270 kts 186°
2026-05-06 03:03 39.76714 -104.45592 8947 ft 270 kts 186°
2026-05-06 03:04 39.74852 -104.45915 8956 ft 268 kts 187°
2026-05-06 03:04 39.73007 -104.46240 8949 ft 271 kts 186°
2026-05-06 03:04 39.71123 -104.46559 8951 ft 269 kts 186°
2026-05-06 03:04 39.69262 -104.46874 8948 ft 269 kts 186°
2026-05-06 03:05 39.67411 -104.47192 8940 ft 269 kts 190°
2026-05-06 03:05 39.65702 -104.48143 8941 ft 271 kts 219°
2026-05-06 03:05 39.64631 -104.50102 8945 ft 264 kts 252°
2026-05-06 03:05 39.64348 -104.52353 8937 ft 250 kts 266°
2026-05-06 03:06 39.64289 -104.54550 8937 ft 241 kts 267°
2026-05-06 03:06 39.64240 -104.56679 8945 ft 228 kts 267°
2026-05-06 03:06 39.64187 -104.58682 8945 ft 216 kts 267°
2026-05-06 03:06 39.64135 -104.60563 8932 ft 202 kts 267°
2026-05-06 03:07 39.64092 -104.62360 8939 ft 198 kts 270°
2026-05-06 03:07 39.64508 -104.64037 8946 ft 198 kts 309°
2026-05-06 03:07 39.65582 -104.65031 8962 ft 188 kts 336°
2026-05-06 03:07 39.66774 -104.65725 8827 ft 189 kts 337°
2026-05-06 03:08 39.67995 -104.66210 8429 ft 181 kts 354°
2026-05-06 03:08 39.69199 -104.66190 8149 ft 164 kts
2026-05-06 03:08 39.70323 -104.66200 7955 ft 162 kts 357°
2026-05-06 03:08 39.71437 -104.66245 7711 ft 159 kts
2026-05-06 03:09 39.72555 -104.66116 7482 ft 163 kts
2026-05-06 03:09 39.73669 -104.66073 7282 ft 158 kts 358°
2026-05-06 03:09 39.74835 -104.66157 7182 ft 173 kts 353°
2026-05-06 03:09 39.76075 -104.66238 6770 ft 179 kts
2026-05-06 03:10 39.77269 -104.66088 6444 ft 166 kts
2026-05-06 03:10 39.78339 -104.66037 6290 ft 147 kts 353°
2026-05-06 03:10 39.79343 -104.66209 6118 ft 144 kts 355°
2026-05-06 03:10 39.80374 -104.66098 5930 ft 151 kts
2026-05-06 03:11 39.81446 -104.65994 5770 ft 153 kts 358°
2026-05-06 03:11 39.82502 -104.66055 5546 ft 152 kts 358°
2026-05-06 03:11 39.83562 -104.66048 5425 ft 147 kts 360°
2026-05-06 03:11 39.84389 -104.66039 5401 ft 76 kts
2026-05-06 03:12 39.84694 -104.66045 5396 ft 28 kts 346°
2026-05-06 03:12 39.84856 -104.66118 5395 ft 21 kts 330°
2026-05-06 03:12 39.84964 -104.66196 5394 ft 13 kts 332°
2026-05-06 03:12 39.85010 -104.66225 5394 ft 0 kts 338°
2026-05-06 03:13 39.85057 -104.66240 5393 ft 17 kts 355°
2026-05-06 03:13 39.85177 -104.66246 5392 ft 16 kts 360°
2026-05-06 03:13 39.85292 -104.66243 5391 ft 15 kts
2026-05-06 03:13 39.85398 -104.66240 5391 ft 14 kts
2026-05-06 03:14 39.85500 -104.66238 5390 ft 13 kts
2026-05-06 03:14 39.85565 -104.66245 5389 ft 6 kts 330°
2026-05-06 03:14 39.85583 -104.66300 5387 ft 8 kts 274°
2026-05-06 03:14 39.85584 -104.66422 5383 ft 15 kts 271°
2026-05-06 03:15 39.85588 -104.66573 5378 ft 17 kts 272°
2026-05-06 03:15 39.85610 -104.66721 5378 ft 15 kts 293°
2026-05-06 03:15 39.85666 -104.66829 5378 ft 10 kts 332°
2026-05-06 03:15 39.85731 -104.66841 5378 ft 8 kts
2026-05-06 03:16 39.85782 -104.66839 5378 ft 4 kts 12°
2026-05-06 03:16 39.85804 -104.66831 5378 ft 1 kts
2026-05-06 03:16 39.85806 -104.66831 5378 ft 0 kts